Location: ????????
(55.4095°N, 38.7184°E)
Time: 22:33:37
(UTC+00:00)

Cosmos 1553 Rocket - Pass Details

Date: 14 December 2025
Orbit: 942 x 1006 km, 82.9° (Epoch: 21 April)

Event Time Altitude Azimuth Distance (km) Brightness Sun altitude
Rises 15:49:24 0° 184° (S) 3,634 7.1 -23.1°
Reaches altitude 10° 15:51:53 10° 183° (S) 2,701 6.4 -23.4°
Maximum altitude 15:58:04 80° 99° (E) 1,001 3.9 -24.3°
Drops below altitude 10° 16:04:24 10° 13° (NNE) 2,764 6.2 -25.2°
Enters shadow 16:04:28 10° 13° (NNE) 2,787 6.2 -25.2°
